STARLINK-37319, 68706

Orbit data source: Space-Track

STARLINK-37319, 68706 is a payload satellite owned by SpaceX/Seattle (US) in LEO that was launched on Tue, 14 Apr 2026 UTC via an FALCON 9 launch vehicle from the Air Force Eastern Test Range (AFETR). Payload-class satellites include a variety of spacecraft equipped with specific instruments for various scientific and technological missions. These include communications satellites like Starlink; space stations such as the ISS; scientific satellites like the Hubble; Earth observation satellites from companies like Planet Labs, Umbra, and HawkEye 360; GPS; miniature CubeSats for education and research; and military/defense satellites.

Loading next visibility...
Identifier
68706, 2026-081H
Orbit
LEO
Country
Flag of USUS
Related business
Manufacturer
SpaceX/Seattle
Mission
Operational spacecraft
Bus & Motor
STARLINK V2MO, Unknown motor
Mass
575 kg wet, ~530 kg dry
Launch date (UTC)
2026-04-14 (2 months ago)
Launch vehicle
FALCON 9
Launch site
Air Force Eastern Test Range (AFETR)
Object type
Payload
Rocket body
Debris
Shape & HBR
Unknown shape, 14.5 m
Radar Cross Section
Large (>1 m²)

Expand to show TLE details & history
Last TLE update: 10 hours ago

TLE from 10 hours ago
0 STARLINK-37319
1 68706U 26081H   26171.44368779  .00031176  00000-0  92982-3 0  9990
2 68706  53.1580 276.2136 0001114  79.3677 280.7451 15.34406261 10486
Epoch: 2026-06-20T10:38Z
TLE epoch observation values (Epoch: 2026-06-20T10:38:54.625Z)
Latitude
-0°
Longitude
-152.17224°
Altitude
463.444 km
Speed
7.636 km/s
True Right ascension
18h 24m 51s
True Declination
0° 00' 00"
Sunlit
Object was in full shadow at epoch
Visualization orbit readout
Latitude
Unknown
Longitude
Unknown
Altitude
Unknown
Speed
Unknown
Apparent Right ascension
Unknown
Apparent Declination
Unknown
Sunlit
N/A
Visualization observer readout
Local Sidereal Time
07:13:41
Azimuth
Unknown
Elevation
Unknown
Doppler factor
Unknown
Orbital elements
Apogee altitude
463.704 km
Perigee altitude
462.18 km
Semi-major axis
6,841.079 km
Eccentricity
0.00011
Inclination
53.158°
RAAN
276.2136°
Arg. of periapsis
79.3677°
True anomaly
280.73256°
Mean anomaly
280.7451°
Eccentric anomaly
280.73883°
Mean motion
3.8358 °/min
Orbital period
93.85 mins
BSTAR
0.00092982
Loading maneuver chart data...
Computing Atmospheric mass density...
Loading historical data...
Loading historical data...
Loading historical data...
Loading historical data...
Loading historical data...
Loading historical data...
Loading historical data...

Documentation

Showing up to 5 results
|